CW9887 Weather Reports


time (UTC)temp
F
wind
direction
speed
knots
gust
knots
rain 1hr
in
rain 24hr
in
rain mn
in
humidity
%
barometer
mb
20190421115759 56 173 0.9 0.0 0.00 0.00 0.12 98 1015.3
20190421114742 56 197 0.9 0.0 0.00 0.00 0.12 98 1015.2
20190421113746 56 157 0.9 0.0 0.00 0.00 0.12 98 1015.1
20190421112745 56 146 0.9 0.0 0.00 0.00 0.12 98 1014.9
20190421111753 56 188 1.7 0.0 0.00 0.00 0.12 98 1015.1
20190421111508 55 226 1.7 0.0 0.00 0.00 0.12 98 1014.9
20190421110759 55 169 0.9 0.0 0.00 0.00 0.12 98 1015.1
20190421105801 55 170 1.7 0.0 0.00 0.00 0.12 98 1014.7
20190421104800 55 178 0.9 0.0 0.00 0.00 0.12 98 1014.5
20190421104518 54 196 0.9 0.0 0.00 0.00 0.12 98 1014.0
20190421103740 55 135 0.0 0.0 0.00 0.00 0.12 98 1014.4
20190421102740 54 94 0.0 0.0 0.00 0.00 0.12 98 1014.1
20190421101747 54 94 0.9 0.0 0.00 0.00 0.12 98 1013.9
20190421100747 54 118 0.9 0.0 0.00 0.00 0.12 98 1013.8
20190421095754 54 90 0.0 0.0 0.00 0.00 0.12 98 1013.9
20190421094756 54 84 0.9 0.0 0.00 0.00 0.12 98 1013.7
20190421093759 54 94 0.9 0.0 0.00 0.00 0.12 98 1013.7
20190421092742 54 128 0.9 0.0 0.00 0.00 0.12 98 1013.8
20190421090751 55 90 0.0 0.0 0.00 0.00 0.12 98 1013.6
20190421085755 55 81 0.0 0.0 0.00 0.00 0.12 98 1013.6
20190421084757 55 82 0.9 0.0 0.00 0.00 0.12 98 1013.8
20190421083739 55 88 0.9 0.0 0.00 0.00 0.12 97 1013.5
20190421082740 55 69 0.9 0.0 0.00 0.00 0.12 98 1013.2
20190421081743 55 269 0.0 0.0 0.00 0.00 0.12 98 1013.3
20190421080746 55 271 0.0 0.0 0.00 0.00 0.12 97 1013.3
20190421075753 55 271 0.0 0.0 0.00 0.00 0.12 97 1013.2
20190421074756 55 275 0.0 0.0 0.00 0.00 0.12 98 1013.4
20190421074514 55 79 0.0 0.0 0.00 0.00 0.12 97 1013.0
20190421073817 55 79 0.0 0.0 0.00 0.00 0.12 97 1013.4
20190421072756 55 79 0.9 0.0 0.00 0.00 0.12 97 1013.1
20190421071745 55 244 0.0 0.0 0.00 0.00 0.12 97 1012.9
20190421070746 56 259 0.9 0.0 0.00 0.00 0.12 97 1013.2
20190421065744 56 259 2.6 0.0 0.00 0.00 0.12 97 1013.2
20190421064749 56 261 3.5 0.0 0.00 0.00 0.11 96 1013.3
20190421063749 57 239 5.2 0.0 0.00 0.00 0.11 95 1013.1
20190421062755 58 260 3.5 0.0 0.00 0.00 0.08 96 1013.1
20190421061757 59 245 3.5 0.0 0.00 0.00 0.03 94 1012.7
20190421060743 60 189 2.6 0.0 0.00 0.00 0.00 92 1012.4
20190421055743 60 169 2.6 0.0 0.00 0.00 0.00 91 1012.5
20190421054750 61 169 3.5 0.0 0.00 0.00 0.00 90 1012.5
20190421053754 61 162 3.5 0.0 0.00 0.00 0.00 90 1012.5
20190421052739 61 157 2.6 0.0 0.00 0.00 0.00 90 1012.6
20190421051744 61 150 2.6 0.0 0.00 0.00 0.00 90 1012.7
20190421050744 61 161 2.6 0.0 0.00 0.00 0.00 91 1012.6
20190421045750 62 191 3.5 0.0 0.00 0.00 0.00 91 1012.5
20190421044751 62 163 2.6 0.0 0.00 0.00 0.00 91 1012.5
20190421043750 62 218 3.5 0.0 0.00 0.00 0.00 91 1012.8
20190421042756 62 198 3.5 0.0 0.00 0.00 0.00 91 1012.8
20190421041741 62 217 4.3 0.0 0.00 0.00 0.00 92 1012.9
20190421040814 62 188 4.3 0.0 0.00 0.00 0.00 92 1012.8
20190421035756 63 147 4.3 0.0 0.00 0.00 0.00 92 1012.8
20190421034758 63 169 4.3 0.0 0.00 0.00 0.57 92 1012.7
20190421033742 63 188 5.2 0.0 0.00 0.00 0.57 92 1012.6
20190421032748 63 159 3.5 0.0 0.00 0.00 0.57 93 1012.8
20190421031755 63 142 4.3 0.0 0.00 0.00 0.57 93 1012.8
20190421030754 63 170 4.3 0.0 0.00 0.00 0.57 93 1012.6
20190421025756 63 150 3.5 0.0 0.00 0.00 0.57 93 1012.8
20190421024759 63 140 3.5 0.0 0.00 0.00 0.57 93 1012.6
20190421024510 62 196 3.5 0.0 0.00 0.00 0.56 93 1012.1
20190421023759 63 159 4.3 0.0 0.00 0.00 0.57 93 1012.6
20190421022737 63 168 3.5 0.0 0.00 0.00 0.57 94 1012.6
20190421021745 63 129 4.3 0.0 0.00 0.00 0.57 93 1012.3
20190421020747 63 155 5.2 0.0 0.00 0.00 0.57 93 1012.4
20190421015755 63 132 5.2 0.0 0.00 0.00 0.57 93 1012.6
20190421014758 63 173 5.2 0.0 0.00 0.00 0.57 92 1012.7
20190421013745 64 209 5.2 0.0 0.00 0.00 0.57 92 1012.4
20190421012746 64 159 4.3 0.0 0.00 0.00 0.57 91 1012.4
20190421011751 64 209 3.5 0.0 0.00 0.00 0.57 91 1012.2
20190421010750 64 144 5.2 0.0 0.00 0.00 0.57 91 1011.8
20190421005754 64 178 5.2 0.0 0.00 0.00 0.57 91 1011.7
20190421004755 64 157 4.3 0.0 0.00 0.00 0.57 91 1011.4
20190421003753 64 146 5.2 0.0 0.00 0.00 0.57 91 1011.3
20190421002757 65 194 4.3 0.0 0.00 0.00 0.57 91 1011.7
20190421001757 65 124 4.3 0.0 0.00 0.00 0.57 91 1011.9
20190421001512 64 176 4.3 0.0 0.00 0.00 0.56 91 1011.6
20190421000740 65 162 4.3 0.0 0.00 0.00 0.57 91 1012.1
20190420235743 65 204 4.3 0.0 0.00 0.00 0.57 90 1012.0
20190420234751 65 173 4.3 0.0 0.00 0.00 0.57 90 1012.0
20190420233757 65 153 3.5 0.0 0.00 0.00 0.57 90 1011.8
20190420232801 65 171 3.5 0.0 0.00 0.00 0.57 90 1011.4
20190420231743 65 148 4.3 0.0 0.00 0.00 0.57 89 1011.0
20190420230743 66 119 4.3 0.0 0.00 0.00 0.57 88 1011.0
20190420225742 66 121 2.6 0.0 0.00 0.00 0.57 88 1010.9
20190420224748 66 155 2.6 0.0 0.00 0.00 0.57 88 1010.7
20190420223748 66 171 3.5 0.0 0.00 0.00 0.57 87 1010.6
20190420222755 66 128 3.5 0.0 0.00 0.00 0.57 87 1010.6
20190420221752 66 151 3.5 0.0 0.00 0.00 0.57 86 1010.3
20190420220756 67 142 3.5 0.0 0.00 0.00 0.57 85 1010.5
20190420215738 67 166 4.3 0.0 0.00 0.00 0.57 85 1011.1
20190420214749 67 207 3.5 0.0 0.00 0.00 0.57 87 1010.9
20190420213751 67 173 3.5 0.0 0.00 0.00 0.57 89 1010.7
20190420212757 67 170 3.5 0.0 0.00 0.00 0.57 90 1010.3
20190420211757 67 170 3.5 0.0 0.00 0.00 0.57 91 1010.4
20190420210757 68 199 2.6 0.0 0.00 0.00 0.57 91 1010.1
20190420205736 68 205 3.5 0.0 0.00 0.00 0.57 91 1009.6
20190420204740 68 137 2.6 0.0 0.00 0.00 0.57 92 1009.6
20190420203742 67 175 3.5 0.0 0.00 0.00 0.57 91 1009.5
20190420202744 67 221 2.6 0.0 0.00 0.00 0.57 92 1010.0
20190420201752 67 221 3.5 0.0 0.00 0.00 0.57 92 1009.9
20190420200755 67 169 4.3 0.0 0.00 0.00 0.57 93 1010.2
20190420195740 67 159 2.6 0.0 0.00 0.00 0.57 93 1009.3
20190420194746 67 177 2.6 0.0 0.00 0.00 0.57 93 1009.1
20190420193746 67 213 3.5 0.0 0.00 0.00 0.57 94 1009.7
20190420192751 67 209 2.6 0.0 0.00 0.00 0.57 94 1009.8
20190420191753 66 165 3.5 0.0 0.00 0.00 0.57 94 1009.8
20190420190753 67 182 4.3 0.0 0.00 0.00 0.57 94 1009.7
20190420185757 66 167 4.3 0.0 0.00 0.00 0.57 95 1010.0
20190420184758 66 138 4.3 0.0 0.00 0.00 0.57 95 1010.1
20190420184507 65 135 4.3 0.0 0.00 0.00 0.56 96 1009.6
20190420183757 66 163 4.3 0.0 0.00 0.00 0.57 96 1010.2
20190420182738 65 147 4.3 0.0 0.00 0.00 0.57 96 1010.3
20190420181744 65 164 4.3 0.0 0.00 0.00 0.56 96 1010.1
20190420180746 65 155 3.5 0.0 0.00 0.00 0.55 96 1010.1
20190420175756 65 167 3.5 0.0 0.00 0.00 0.55 96 1010.2
20190420174757 65 163 3.5 0.0 0.00 0.00 0.54 96 1010.2
20190420173800 65 150 3.5 0.0 0.00 0.00 0.54 96 1010.4
20190420172743 65 147 3.5 0.0 0.00 0.00 0.54 96 1010.5
20190420171746 64 150 3.5 0.0 0.00 0.00 0.54 96 1010.6
20190420170747 64 202 3.5 0.0 0.00 0.00 0.54 96 1010.7
20190420165746 64 190 3.5 0.0 0.00 0.00 0.54 96 1010.5
20190420164753 64 171 3.5 0.0 0.00 0.00 0.53 96 1010.7
20190420164502 64 213 3.5 0.0 0.00 0.00 0.53 97 1010.1
20190420163756 64 174 3.5 0.0 0.00 0.00 0.53 97 1011.0
20190420162738 64 150 1.7 0.0 0.00 0.00 0.51 97 1010.9
20190420161747 64 188 1.7 0.0 0.00 0.00 0.51 98 1011.0
20190420160753 64 140 0.9 0.0 0.00 0.00 0.50 98 1011.1
20190420155756 64 190 1.7 0.0 0.00 0.00 0.47 97 1011.1
20190420154757 64 257 3.5 0.0 0.00 0.00 0.44 97 1011.0
20190420153756 64 213 4.3 0.0 0.00 0.00 0.39 97 1011.2
20190420152800 64 240 5.2 0.0 0.00 0.00 0.36 97 1011.2
20190420151743 64 223 5.2 0.0 0.00 0.00 0.31 96 1011.0
20190420150742 64 202 3.5 0.0 0.00 0.00 0.26 95 1010.7
20190420145741 65 207 4.3 0.0 0.00 0.00 0.25 94 1010.5
20190420144750 65 206 3.5 0.0 0.00 0.00 0.24 95 1010.4
20190420143755 65 217 3.5 0.0 0.00 0.00 0.24 93 1010.0
20190420142735 65 211 2.6 0.0 0.00 0.00 0.24 93 1009.7
20190420141746 65 181 2.6 0.0 0.00 0.00 0.24 93 1009.7
20190420140749 65 155 3.5 0.0 0.00 0.00 0.24 94 1009.5
20190420135746 65 180 2.6 0.0 0.00 0.00 0.24 94 1009.2
20190420134750 65 249 3.5 0.0 0.00 0.00 0.24 94 1009.1
20190420133755 65 228 2.6 0.0 0.00 0.00 0.24 93 1009.1
20190420132757 65 184 4.3 0.0 0.00 0.00 0.24 93 1008.9
20190420131757 65 218 3.5 0.0 0.00 0.00 0.24 95 1008.7
20190420131509 64 259 2.6 0.0 0.00 0.00 0.24 95 1008.1
20190420130739 64 208 2.6 0.0 0.00 0.00 0.24 95 1008.7
20190420125742 64 190 2.6 0.0 0.00 0.00 0.24 96 1008.6
20190420124749 64 165 2.6 0.0 0.00 0.00 0.24 96 1008.2
20190420123753 64 254 2.6 0.0 0.00 0.00 0.24 96 1008.1
20190420122740 63 215 3.5 0.0 0.00 0.00 0.24 97 1008.1
20190420121744 63 208 2.6 0.0 0.00 0.00 0.24 97 1007.9
20190420120745 63 250 3.5 0.0 0.00 0.00 0.24 96 1007.9